• In Hungary
  • List of Countries
  • For 7 days
  • Water Temperature
  • Satellite Maps
  • Weather Map
  • News
  • Weather Widgets
  • user-avatar
    Login

    Hourly Weather Wevelgem

    Today, 17 February, Saturday

    Time Temperature Precipitation Wind Pressure Humidity
    00:00 +3°C° 0 mm 2 mps 766 mmHg 80%
    01:00 +3°C° 0 mm 2 mps 766 mmHg 80%
    02:00 +3°C° 0 mm 2 mps 766 mmHg 81%
    03:00 +3°C° 0 mm 2 mps 765 mmHg 82%
    04:00 +3°C° 0 mm 2 mps 765 mmHg 81%
    05:00 +3°C° 0 mm 2 mps 765 mmHg 81%
    06:00 +1°C° 0 mm 3 mps 764 mmHg 82%
    07:00 +2°C° 0 mm 3 mps 765 mmHg 80%
    08:00 +3°C° 0 mm 2 mps 765 mmHg 78%
    09:00 +4°C° 0 mm 2 mps 765 mmHg 76%
    10:00 +5°C° 0 mm 2 mps 765 mmHg 70%
    11:00 +6°C° 0 mm 2 mps 765 mmHg 65%
    12:00 +8°C° 0 mm 1 mps 765 mmHg 58%
    13:00 +9°C° 0 mm 1 mps 765 mmHg 55%
    14:00 +9°C° 0 mm 1 mps 765 mmHg 53%
    15:00 +9°C° 0 mm 1 mps 765 mmHg 51%
    16:00 +8°C° 0 mm 1 mps 765 mmHg 56%
    17:00 +7°C° 0 mm 1 mps 766 mmHg 61%
    18:00 +5°C° 0 mm 1 mps 766 mmHg 66%
    19:00 +5°C° 0 mm 1 mps 766 mmHg 68%
    20:00 +4°C° 0 mm 1 mps 767 mmHg 70%
    21:00 +4°C° 0 mm 1 mps 767 mmHg 72%
    22:00 +4°C° 0 mm 1 mps 767 mmHg 73%
    23:00 +3°C° 0 mm 1 mps 767 mmHg 75%

    Tomorrow, 18 February, Sunday

    Time Temperature Precipitation Wind Pressure Humidity
    00:00 +3°C° 0 mm 1 mps 767 mmHg 77%
    01:00 +3°C° 0 mm 1 mps 767 mmHg 78%
    02:00 +1°C° 0 mm 2 mps 767 mmHg 80%
    03:00 +1°C° 0 mm 2 mps 767 mmHg 81%
    04:00 +1°C° 0 mm 2 mps 767 mmHg 82%
    05:00 +1°C° 0 mm 2 mps 767 mmHg 83%
    06:00 +1°C° 0 mm 2 mps 767 mmHg 85%
    07:00 +2°C° 0 mm 2 mps 767 mmHg 81%
    08:00 +3°C° 0 mm 2 mps 767 mmHg 78%
    09:00 +2°C° 0 mm 3 mps 768 mmHg 75%
    10:00 +4°C° 0 mm 3 mps 767 mmHg 69%
    11:00 +5°C° 0 mm 3 mps 767 mmHg 63%
    12:00 +8°C° 0 mm 3 mps 767 mmHg 57%
    13:00 +8°C° 0 mm 2 mps 767 mmHg 56%
    14:00 +8°C° 0 mm 2 mps 767 mmHg 55%
    15:00 +9°C° 0 mm 2 mps 766 mmHg 54%
    16:00 +7°C° 0 mm 2 mps 766 mmHg 59%
    17:00 +6°C° 0 mm 2 mps 766 mmHg 64%
    18:00 +5°C° 0 mm 2 mps 766 mmHg 70%
    19:00 +4°C° 0 mm 2 mps 766 mmHg 72%
    20:00 +4°C° 0 mm 2 mps 766 mmHg 74%
    21:00 +4°C° 0 mm 2 mps 766 mmHg 76%
    22:00 +2°C° 0 mm 3 mps 766 mmHg 78%
    23:00 +2°C° 0 mm 3 mps 766 mmHg 79%

    Day after tomorrow, 19 February, Monday

    Time Temperature Precipitation Wind Pressure Humidity
    00:00 +1°C° 0 mm 3 mps 766 mmHg 80%
    01:00 +1°C° 0 mm 3 mps 766 mmHg 80%
    02:00 +1°C° 0 mm 3 mps 765 mmHg 80%
    03:00 +1°C° 0 mm 3 mps 765 mmHg 80%
    04:00 +1°C° 0 mm 3 mps 765 mmHg 80%
    05:00 0°C° 0 mm 3 mps 765 mmHg 81%
    06:00 0°C° 0 mm 3 mps 764 mmHg 81%
    07:00 +1°C° 0 mm 3 mps 764 mmHg 79%
    08:00 +2°C° 0 mm 3 mps 764 mmHg 76%
    09:00 +3°C° 0 mm 3 mps 764 mmHg 74%
    10:00 +4°C° 0 mm 3 mps 764 mmHg 72%
    11:00 +5°C° 0 mm 3 mps 764 mmHg 69%
    12:00 +7°C° 0 mm 3 mps 764 mmHg 67%
    13:00 +7°C° 0.1 mm 3 mps 763 mmHg 69%
    14:00 +7°C° 0.1 mm 3 mps 763 mmHg 70%
    15:00 +8°C° 0.1 mm 3 mps 763 mmHg 72%
    16:00 +7°C° 0.2 mm 3 mps 762 mmHg 75%
    17:00 +7°C° 0.2 mm 3 mps 762 mmHg 78%
    18:00 +5°C° 0.2 mm 3 mps 762 mmHg 81%
    19:00 +5°C° 0.6 mm 4 mps 762 mmHg 83%
    20:00 +5°C° 0.6 mm 4 mps 761 mmHg 86%
    21:00 +5°C° 0.6 mm 4 mps 761 mmHg 88%
    22:00 +5°C° 0.9 mm 4 mps 761 mmHg 90%
    23:00 +5°C° 0.9 mm 4 mps 760 mmHg 92%

    20 February, Tuesday

    Time Temperature Precipitation Wind Pressure Humidity
    00:00 +5°C° 0.9 mm 4 mps 760 mmHg 94%
    01:00 +6°C° 0.8 mm 5 mps 760 mmHg 94%
    02:00 +6°C° 0.8 mm 5 mps 759 mmHg 95%
    03:00 +6°C° 0.8 mm 5 mps 759 mmHg 96%
    04:00 +6°C° 0.4 mm 5 mps 759 mmHg 95%
    05:00 +5°C° 0.4 mm 6 mps 759 mmHg 94%
    06:00 +5°C° 0.4 mm 6 mps 758 mmHg 94%
    07:00 +5°C° 0.2 mm 6 mps 759 mmHg 92%
    08:00 +6°C° 0.2 mm 5 mps 759 mmHg 91%
    09:00 +5°C° 0.2 mm 5 mps 759 mmHg 89%
    10:00 +5°C° 0.1 mm 5 mps 760 mmHg 87%
    11:00 +5°C° 0.1 mm 6 mps 760 mmHg 84%
    12:00 +5°C° 0.1 mm 6 mps 761 mmHg 82%
    13:00 +5°C° 0 mm 6 mps 761 mmHg 80%
    14:00 +4°C° 0 mm 7 mps 761 mmHg 79%
    15:00 +4°C° 0 mm 7 mps 761 mmHg 77%
    16:00 +4°C° 0 mm 7 mps 762 mmHg 77%
    17:00 +3°C° 0 mm 6 mps 763 mmHg 78%
    18:00 +2°C° 0 mm 6 mps 763 mmHg 79%
    19:00 +2°C° 0 mm 6 mps 764 mmHg 78%
    20:00 +2°C° 0 mm 6 mps 764 mmHg 78%
    21:00 +2°C° 0 mm 5 mps 765 mmHg 78%
    22:00 +1°C° 0 mm 5 mps 765 mmHg 79%
    23:00 +1°C° 0 mm 5 mps 766 mmHg 81%

    21 February, Wednesday

    Time Temperature Precipitation Wind Pressure Humidity
    00:00 0°C° 0 mm 4 mps 766 mmHg 83%
    01:00 0°C° 0 mm 4 mps 766 mmHg 84%
    02:00 -1°C° 0 mm 4 mps 766 mmHg 86%
    03:00 0°C° 0 mm 3 mps 766 mmHg 88%
    04:00 0°C° 0 mm 3 mps 766 mmHg 88%
    05:00 -1°C° 0 mm 3 mps 766 mmHg 88%
    06:00 -2°C° 0 mm 4 mps 766 mmHg 88%
    07:00 -1°C° 0 mm 4 mps 766 mmHg 83%
    08:00 0°C° 0 mm 4 mps 766 mmHg 77%
    09:00 0°C° 0 mm 5 mps 766 mmHg 71%
    10:00 +1°C° 0 mm 5 mps 766 mmHg 66%
    11:00 +2°C° 0 mm 5 mps 766 mmHg 62%
    12:00 +3°C° 0 mm 5 mps 766 mmHg 57%
    13:00 +3°C° 0 mm 6 mps 766 mmHg 56%
    14:00 +3°C° 0 mm 6 mps 765 mmHg 56%
    15:00 +3°C° 0 mm 6 mps 765 mmHg 56%
    16:00 +2°C° 0 mm 6 mps 765 mmHg 61%
    17:00 +1°C° 0 mm 5 mps 765 mmHg 65%
    18:00 0°C° 0 mm 5 mps 765 mmHg 70%
    19:00 -1°C° 0 mm 5 mps 766 mmHg 73%
    20:00 -1°C° 0 mm 5 mps 766 mmHg 76%
    21:00 -2°C° 0 mm 5 mps 766 mmHg 80%
    22:00 -2°C° 0 mm 5 mps 766 mmHg 79%
    23:00 -2°C° 0 mm 5 mps 766 mmHg 78%

    22 February, Thursday

    Time Temperature Precipitation Wind Pressure Humidity
    00:00 -4°C° 0 mm 5 mps 766 mmHg 77%
    01:00 -4°C° 0 mm 5 mps 766 mmHg 75%
    02:00 -4°C° 0 mm 5 mps 766 mmHg 72%
    03:00 -4°C° 0 mm 5 mps 766 mmHg 70%
    04:00 -4°C° 0 mm 5 mps 766 mmHg 71%
    05:00 -4°C° 0 mm 5 mps 766 mmHg 71%
    06:00 -4°C° 0 mm 5 mps 766 mmHg 71%
    07:00 -4°C° 0 mm 6 mps 766 mmHg 67%
    08:00 -3°C° 0 mm 7 mps 766 mmHg 63%
    09:00 -3°C° 0 mm 7 mps 766 mmHg 59%
    10:00 -2°C° 0 mm 7 mps 765 mmHg 55%
    11:00 -1°C° 0 mm 7 mps 765 mmHg 51%
    12:00 0°C° 0 mm 7 mps 765 mmHg 47%
    13:00 0°C° 0 mm 7 mps 765 mmHg 47%
    14:00 0°C° 0 mm 7 mps 764 mmHg 47%
    15:00 0°C° 0 mm 7 mps 764 mmHg 48%
    16:00 -1°C° 0 mm 6 mps 764 mmHg 52%
    17:00 -2°C° 0 mm 6 mps 765 mmHg 55%
    18:00 -2°C° 0 mm 5 mps 765 mmHg 59%
    19:00 -2°C° 0 mm 5 mps 765 mmHg 62%
    20:00 -4°C° 0 mm 5 mps 765 mmHg 65%
    21:00 -4°C° 0 mm 5 mps 766 mmHg 67%
    22:00 -5°C° 0 mm 5 mps 766 mmHg 69%
    23:00 -5°C° 0 mm 5 mps 766 mmHg 70%
    Show more